Location: Unspecified
(0.0000°N, 0.0000°E)
Time: 10:37:53
(UTC+00:00)

Cosmos 2333 Rocket - Pass Details

Date: 17 December 2025
Orbit: 838 x 865 km, 70.8° (Epoch: 17 January)

Event Time Altitude Azimuth Distance (km) Brightness Sun altitude
Rises 04:37:10 0° 7° (N) 3,411 5.2 -18.1°
Reaches altitude 10° 04:40:03 10° 20° (NNE) 2,473 4.6 -17.4°
Maximum altitude 04:44:37 25° 74° (ENE) 1,646 4.3 -16.4°
Drops below altitude 10° 04:49:10 10° 128° (SE) 2,466 5.9 -15.3°
Sets 04:52:01 0° 141° (SE) 3,399 6.5 -14.7°
